Location: Jackson
(42.2460°N, 84.4010°W)
Time: 10:24:02
(UTC-04:00)

Injun/Solrad 3 - Pass Details

Date: 09 February 2026
Orbit: 871 x 985 km, 66.8° (Epoch: 16 March)

Event Time Altitude Azimuth Distance (km) Brightness Sun altitude
Rises 20:19:28 0° 337° (NNW) 3,543 11.3 -25.8°
Reaches altitude 10° 20:23:23 10° 3° (N) 2,624 10.3 -26.5°
Enters shadow 20:24:52 13° 16° (NNE) 2,427 9.9 -26.8°
